Regional Weather Roundup
Issued by NWS

Home | Current Version | Previous Version | Text Only | Print | Product List | Glossary Off
Versions: 1 2 3 4 5 6 7 8 9 10 11 12 13 14 15 16 17 18 19 20 21 22 23 24 25 26 27 28 29 30 31 32 33 34 35 36 37 38 39 40 41 42 43 44 45 46 47 48 49 50

000
ASUS43 KMKX 221811
RWRWI

WISCONSIN REGIONAL WEATHER ROUNDUP
NATIONAL WEATHER SERVICE MILWAUKEE/SULLIVAN WI
100 PM CDT SAT JUL 22 2017

NOTE: "FAIR" INDICATES FEW OR NO CLOUDS BELOW 12,000 FEET WITH NO
SIGNIFICANT WEATHER AND/OR OBSTRUCTIONS TO VISIBILITY.

WIZ001-002-006>008-014>016-023>028-221900-
NORTHWEST WISCONSIN

CITY           SKY/WX    TMP DP  RH WIND       PRES   REMARKS
SUPERIOR ARPT  NOT AVBL
ASHLAND        CLOUDY    73  65  75 NE6       29.82S
6HR MIN TEMP:  63; 6HR MAX TEMP:  74;

HAYWARD        MOSUNNY   79  67  66 MISG      29.83S HX  81
6HR MIN TEMP:  65; 6HR MAX TEMP:  79;

SIREN          CLOUDY    81  65  58 SW6       29.83S HX  83
6HR MIN TEMP:  63; 6HR MAX TEMP:  81; 6HR PCP:  0.01;

CUMBERLAND     SUNNY     79  64  61 CALM      29.84S HX  81
RICE LAKE      SUNNY     81  68  65 W6        29.85S HX  83
6HR MIN TEMP:  64; 6HR MAX TEMP:  81;

CHETEK         SUNNY     83  70  63 W3        29.83F HX  87
6HR MIN TEMP:  65; 6HR MAX TEMP:  83;

LADYSMITH      SUNNY     82  66  58 W8        29.84F HX  84
6HR MIN TEMP:  65; 6HR MAX TEMP:  82;

EAU CLAIRE     SUNNY     85  65  51 VRB6      29.81F HX  86
6HR MIN TEMP:  67; 6HR MAX TEMP:  85;

MENOMONIE      SUNNY     84  68  57 S6        29.82F HX  87
6HR MIN TEMP:  68; 6HR MAX TEMP:  84;

NEW RICHMOND   SUNNY     84  67  57 NW5       29.83S HX  86
6HR MIN TEMP:  65; 6HR MAX TEMP:  84;

OSCEOLA        SUNNY     83  68  59 NW7       29.85S HX  86
6HR MIN TEMP:  66; 6HR MAX TEMP:  83;

$$

WIZ003>005-009-010-017-018-221900-
NORTH CENTRAL WISCONSIN

CITY           SKY/WX    TMP DP  RH WIND       PRES   REMARKS
MANITOWISH WTR CLOUDY    76  67  72 N6        29.83S
6HR MIN TEMP:  67; 6HR MAX TEMP:  77;

ARBOR VITAE    MOSUNNY   80  67  64 NW10      29.83S HX  82
6HR MIN TEMP:  67; 6HR MAX TEMP:  80;

WOODRUFF       MOSUNNY   80  67  64 NW10      29.83S HX  82
6HR MIN TEMP:  67; 6HR MAX TEMP:  80;

RHINELANDER    PTSUNNY   80  65  59 VRB7      29.84F HX  82
6HR MIN TEMP:  65; 6HR MAX TEMP:  81; 6HR PCP: TRACE;

EAGLE RIVER    PTSUNNY   78  61  56 NW6       29.82F
6HR MIN TEMP:  65; 6HR MAX TEMP:  80;

LAND O LAKES   CLOUDY    78  62  57 NW3       29.84F HX  80
PHILLIPS       MOSUNNY   80  68  67 SW5       29.82F HX  82
6HR MIN TEMP:  66; 6HR MAX TEMP:  80;

TOMAHAWK         N/A     80  64  58 W6        29.84S HX  81
6HR MIN TEMP:  64; 6HR MAX TEMP:  80;

MEDFORD        MOSUNNY   78  65  64 SW6       29.84F HX  80
6HR MIN TEMP:  66; 6HR MAX TEMP:  78;

MERRILL        MOSUNNY   81  67  61 NW7       29.83F HX  84
6HR MIN TEMP:  64; 6HR MAX TEMP:  81;

$$

WIZ029-030-035-036-043>047-221900-
CENTRAL WISCONSIN

CITY           SKY/WX    TMP DP  RH WIND       PRES   REMARKS
WAUSAU         MOSUNNY   81  65  58 NW9       29.82S HX  83
6HR MIN TEMP:  66; 6HR MAX TEMP:  82;

MOSINEE        PTSUNNY   81  66  61 CALM      29.85S HX  83
MARSHFIELD     MOSUNNY   81  67  62 NW8       29.84S HX  83
6HR MIN TEMP:  67; 6HR MAX TEMP:  81;

STEVENS POINT  MOSUNNY   78  66  66 NW5       29.84S HX  80
6HR MIN TEMP:  64; 6HR MAX TEMP:  79;

WAUPACA        MOSUNNY   82  66  59 CALM      29.83F HX  84
6HR MIN TEMP:  69; 6HR MAX TEMP:  82;

WAUTOMA        CLOUDY    78  69  73 VRB5      29.83F HX  80
6HR MIN TEMP:  65; 6HR MAX TEMP:  78;

WISC RAPIDS    PTSUNNY   79  70  74 VRB5      29.85S HX  82
6HR MIN TEMP:  66; 6HR MAX TEMP:  80;

CAMP DOUGLAS   PTSUNNY   77  72  83 CALM      29.84F
                                      6HR PCP:  0.01;

$$

WIZ011>013-019>022-031-037>040-048>050-221900-
NORTHEAST WISCONSIN

CITY           SKY/WX    TMP DP  RH WIND       PRES   REMARKS
ANTIGO         PTSUNNY   78  66  65 W5        29.85S HX  80
6HR MIN TEMP:  64; 6HR MAX TEMP:  78;

SHAWANO        PTSUNNY   80  67  63 S5        29.83R HX  82
6HR MIN TEMP:  68; 6HR MAX TEMP:  80;

OCONTO         CLOUDY    77  64  64 SE7       29.82S
6HR MIN TEMP:  67; 6HR MAX TEMP:  77;

STURGEON BAY     N/A     75  64  68 E5        29.83F
6HR MIN TEMP:  67; 6HR MAX TEMP:  75;

GREEN BAY      CLOUDY    80  69  69 CALM      29.81F HX  83
6HR MIN TEMP:  68; 6HR MAX TEMP:  81;

MANITOWOC      MOSUNNY   78  67  68 E5        29.82F HX  80
6HR MIN TEMP:  70; 6HR MAX TEMP:  78;

APPLETON       PTSUNNY   77  64  65 VRB5      29.82F
CLINTONVILLE   CLOUDY    77  64  65 CALM      29.83S
OSHKOSH        CLOUDY    78  68  71 CALM      29.82F HX  80
6HR MIN TEMP:  67; 6HR MAX TEMP:  78;

$$

WIZ032>034-041-042-053>061-221900-
SOUTHWEST WISCONSIN

CITY           SKY/WX    TMP DP  RH WIND       PRES   REMARKS
LA CROSSE      CLOUDY    79  71  76 CALM      29.83F HX  82
6HR MIN TEMP:  73; 6HR MAX TEMP:  79;

SPARTA         CLOUDY    74  68  80 CALM      29.85F
6HR MIN TEMP:  66; 6HR MAX TEMP:  75;

VIROQUA        CLOUDY    74  72  93 CALM      29.87F
6HR MIN TEMP:  68; 6HR MAX TEMP:  74;

BOSCOBEL       CLOUDY    80  72  76 E3        29.84S HX  84
6HR MIN TEMP:  72; 6HR MAX TEMP:  80;

PRAIRIE DU CHI CLOUDY    78  70  76 N6        29.83R HX  81
6HR MIN TEMP:  70; 6HR MAX TEMP:  79;

PLATTEVILLE    PTSUNNY   81  76  85 W6        29.85S HX  87
6HR MIN TEMP:  70; 6HR MAX TEMP:  81;

$$

WIZ056-057-062-063-064-067-068-221900-
SOUTH CENTRAL WISCONSIN

CITY           SKY/WX    TMP DP  RH WIND       PRES   REMARKS
REEDSBURG      CLOUDY    73  72  95 CALM      29.85F
6HR MIN TEMP:  67; 6HR MAX TEMP:  73;

BARABOO/DELLS  CLOUDY    74  68  82 NE3       29.85F
6HR MIN TEMP:  66; 6HR MAX TEMP:  74;

LONE ROCK      CLOUDY    77  70  79 CALM      29.84S
6HR MIN TEMP:  69; 6HR MAX TEMP:  77;

MINERAL POINT  CLOUDY    79  73  83 N7        29.86S HX  82
MADISON        CLOUDY    77  70  79 NW3       29.83F
6HR MIN TEMP:  71; 6HR MAX TEMP:  78;

MIDDLETON      CLOUDY    76  74  93 CALM      29.85F
6HR MIN TEMP:  71; 6HR MAX TEMP:  76;

WATERTOWN      CLOUDY    75  73  92 NW5       29.83F
6HR MIN TEMP:  68; 6HR MAX TEMP:  75;

MONROE         CLOUDY    81  68  65 NW3       29.84F HX  83
JANESVILLE     CLOUDY    81  70  69 NW9       29.83S HX  84
$$

WIZ051-052-058>065-066-070>072-221900-
SOUTHEAST WISCONSIN

CITY           SKY/WX    TMP DP  RH WIND       PRES   REMARKS
MILWAUKEE      CLOUDY    79  71  76 NW7       29.82F HX  82
6HR MIN TEMP:  71; 6HR MAX TEMP:  79; 6HR PCP: TRACE;

WAUKESHA       CLOUDY    73  70  88 CALM      29.84F
MILWAUKEE/TIMM CLOUDY    75  66  73 NW6       29.83F
RACINE         CLOUDY    78  71  79 NW7       29.84S HX  80
6HR MIN TEMP:  71; 6HR MAX TEMP:  79;

KENOSHA        CLOUDY    79  69  71 NW8       29.83S HX  81
6HR MIN TEMP:  70; 6HR MAX TEMP:  80;

FOND DU LAC    CLOUDY    76  66  71 W3        29.83F
6HR MIN TEMP:  66; 6HR MAX TEMP:  77; 6HR PCP: TRACE;

SHEBOYGAN      CLOUDY    78  71  79 VRB5      29.82F HX  80
6HR MIN TEMP:  68; 6HR MAX TEMP:  78;

WEST BEND      CLOUDY    75  70  83 N3        29.83F
JUNEAU         CLOUDY    74  69  84 NW3       29.85F
6HR MIN TEMP:  65; 6HR MAX TEMP:  74;

$$

LSZ147-162-221900-
LAKE SUPERIOR

STATION/POSITION TIME  TEMP    WIND        PRES    WAVE
                       AIR SEA DIR/SP/G            HT/PER
                 (UTC) (F)     (DEG/KT/KT) (MB)    (FT/S)
W MID LAKE BUOY  1750   49 47   30/ 12/ 16 1010.1F   2/ 5
DEVILS ISLAND    1800   55      30/  5/  6 1010.5R
SAXON HARBOR     1740   65     340/  3/  4 1010.2R
$$

LMZ867-665-643>646-221900-
LAKE MICHIGAN

STATION/POSITION TIME  TEMP    WIND        PRES    WAVE
                       AIR SEA DIR/SP/G            HT/PER
                 (UTC) (F)     (DEG/KT/KT) (MB)    (FT/S)
CHAMBERS ISLAND  1740   74      70/  3/  7 1009.5S
S GREEN BAY BUOY 1800   73 75   20/  4/  4 1009.9
N MID LAKE BUOY  1750   69 68   60/  4/  4 1010.3F   1
NORTHPORT PIER   1740


USA.gov is the U.S. government's official web portal to all federal, state and local government web resources and services.